Time,TemperatureF,DewpointF,PressureIn,WindDirection,WindDirectionDegrees,WindSpeedMPH,WindSpeedGustMPH,Humidity,HourlyPrecipIn,Conditions,Clouds,dailyrainin,SolarRadiationWatts/m^2,SoftwareType,DateUTC
2013-09-06 00:03:00,81.0,66.0,-100.00,ESE,107,0.0,6.0,61,0.00,,,0.00,0.000000,,2013-09-06 05:03:00,
2013-09-06 00:43:00,79.0,66.0,-100.00,East,95,4.0,5.0,65,0.00,,,0.00,0.000000,,2013-09-06 05:43:00,
2013-09-06 00:52:00,79.0,66.0,-100.00,East,95,4.0,5.0,65,0.00,,,0.00,0.000000,,2013-09-06 05:52:00,
2013-09-06 01:02:00,79.0,66.0,-100.00,East,95,4.0,5.0,65,0.00,,,0.00,0.000000,,2013-09-06 06:02:00,
2013-09-06 01:42:00,78.0,66.0,-100.00,SE,124,5.0,8.0,67,0.00,,,0.00,0.000000,,2013-09-06 06:42:00,
2013-09-06 01:53:00,78.0,66.0,-100.00,SE,124,5.0,8.0,67,0.00,,,0.00,0.000000,,2013-09-06 06:53:00,
2013-09-06 02:01:00,78.0,66.0,-100.00,SE,124,5.0,8.0,67,0.00,,,0.00,0.000000,,2013-09-06 07:01:00,
2013-09-06 02:42:00,77.0,66.0,-100.00,ESE,116,4.0,7.0,68,0.00,,,0.00,0.000000,,2013-09-06 07:42:00,
2013-09-06 02:52:00,77.0,66.0,-100.00,ESE,116,4.0,7.0,68,0.00,,,0.00,0.000000,,2013-09-06 07:52:00,
2013-09-06 03:03:00,77.0,66.0,-100.00,ESE,116,4.0,7.0,68,0.00,,,0.00,0.000000,,2013-09-06 08:03:00,
2013-09-06 03:42:00,76.0,67.0,-100.00,ESE,123,4.0,6.0,73,0.00,,,0.00,0.000000,,2013-09-06 08:42:00,
2013-09-06 03:52:00,76.0,67.0,-100.00,ESE,123,4.0,6.0,73,0.00,,,0.00,0.000000,,2013-09-06 08:52:00,
2013-09-06 04:02:00,76.0,67.0,-100.00,ESE,123,4.0,6.0,73,0.00,,,0.00,0.000000,,2013-09-06 09:02:00,
2013-09-06 04:43:00,74.0,66.0,-100.00,ESE,103,0.0,4.0,75,0.00,,,0.00,0.000000,,2013-09-06 09:43:00,
2013-09-06 04:54:00,74.0,66.0,-100.00,ESE,103,0.0,4.0,75,0.00,,,0.00,0.000000,,2013-09-06 09:54:00,
2013-09-06 05:03:00,74.0,66.0,-100.00,ESE,103,0.0,4.0,75,0.00,,,0.00,0.000000,,2013-09-06 10:03:00,
2013-09-06 05:43:00,73.0,67.0,-100.00,SE,127,0.0,0.0,81,0.00,,,0.00,0.000000,,2013-09-06 10:43:00,
2013-09-06 05:53:00,73.0,67.0,-100.00,SE,127,0.0,0.0,81,0.00,,,0.00,0.000000,,2013-09-06 10:53:00,
2013-09-06 06:02:00,73.0,67.0,-100.00,SE,127,0.0,0.0,81,0.00,,,0.00,0.000000,,2013-09-06 11:02:00,
2013-09-06 06:42:00,73.0,69.0,-100.00,SW,221,0.0,0.0,86,0.00,,,0.00,0.000000,,2013-09-06 11:42:00,
2013-09-06 06:52:00,73.0,69.0,-100.00,SW,221,0.0,0.0,86,0.00,,,0.00,0.000000,,2013-09-06 11:52:00,
2013-09-06 07:02:00,73.0,69.0,-100.00,SW,221,0.0,0.0,86,0.00,,,0.00,0.000000,,2013-09-06 12:02:00,
2013-09-06 07:42:00,72.0,68.0,-100.00,South,178,0.0,0.0,86,0.00,,,0.00,0.000000,,2013-09-06 12:42:00,
2013-09-06 07:52:00,72.0,68.0,-100.00,South,178,0.0,0.0,86,0.00,,,0.00,0.000000,,2013-09-06 12:52:00,
2013-09-06 08:02:00,72.0,68.0,-100.00,South,178,0.0,0.0,86,0.00,,,0.00,0.000000,,2013-09-06 13:02:00,
2013-09-06 08:42:00,73.0,69.0,-100.00,South,175,0.0,0.0,86,0.00,,,0.00,40.000000,,2013-09-06 13:42:00,
2013-09-06 08:52:00,73.0,69.0,-100.00,South,175,0.0,0.0,86,0.00,,,0.00,40.000000,,2013-09-06 13:52:00,
2013-09-06 09:02:00,73.0,69.0,-100.00,South,175,0.0,0.0,86,0.00,,,0.00,40.000000,,2013-09-06 14:02:00,
2013-09-06 09:42:00,81.0,71.0,-100.00,SSW,210,0.0,0.0,72,0.00,,,0.00,227.000000,,2013-09-06 14:42:00,
2013-09-06 09:52:00,81.0,71.0,-100.00,SSW,210,0.0,0.0,72,0.00,,,0.00,227.000000,,2013-09-06 14:52:00,
2013-09-06 10:01:00,81.0,71.0,-100.00,SSW,210,0.0,0.0,72,0.00,,,0.00,227.000000,,2013-09-06 15:01:00,
2013-09-06 10:43:00,83.0,70.0,-100.00,WSW,254,3.0,7.0,66,0.00,,,0.00,456.000000,,2013-09-06 15:43:00,
2013-09-06 10:53:00,83.0,70.0,-100.00,WSW,254,3.0,7.0,66,0.00,,,0.00,456.000000,,2013-09-06 15:53:00,
2013-09-06 11:04:00,83.0,70.0,-100.00,WSW,254,3.0,7.0,66,0.00,,,0.00,456.000000,,2013-09-06 16:04:00,
2013-09-06 11:43:00,88.0,71.0,-100.00,WNW,294,3.0,8.0,57,0.00,,,0.00,649.000000,,2013-09-06 16:43:00,
2013-09-06 11:53:00,88.0,71.0,-100.00,WNW,294,3.0,8.0,57,0.00,,,0.00,649.000000,,2013-09-06 16:53:00,
2013-09-06 12:03:00,88.0,71.0,-100.00,WNW,294,3.0,8.0,57,0.00,,,0.00,649.000000,,2013-09-06 17:03:00,
2013-09-06 12:43:00,90.0,66.0,-100.00,South,173,6.0,11.0,46,0.00,,,0.00,837.000000,,2013-09-06 17:43:00,
2013-09-06 12:53:00,90.0,66.0,-100.00,South,173,6.0,11.0,46,0.00,,,0.00,837.000000,,2013-09-06 17:53:00,
2013-09-06 13:02:00,90.0,66.0,-100.00,South,173,6.0,11.0,46,0.00,,,0.00,837.000000,,2013-09-06 18:02:00,
2013-09-06 13:42:00,91.0,65.0,-100.00,SSE,156,8.0,14.0,42,0.00,,,0.00,937.000000,,2013-09-06 18:42:00,
2013-09-06 13:52:00,91.0,65.0,-100.00,SSE,156,8.0,14.0,42,0.00,,,0.00,937.000000,,2013-09-06 18:52:00,
2013-09-06 14:02:00,91.0,65.0,-100.00,SSE,156,8.0,14.0,42,0.00,,,0.00,937.000000,,2013-09-06 19:02:00,
2013-09-06 14:43:00,93.0,64.0,-100.00,SE,128,8.0,16.0,39,0.00,,,0.00,967.000000,,2013-09-06 19:43:00,
2013-09-06 14:52:00,93.0,64.0,-100.00,SE,128,8.0,16.0,39,0.00,,,0.00,967.000000,,2013-09-06 19:52:00,
2013-09-06 15:02:00,93.0,64.0,-100.00,SE,128,8.0,16.0,39,0.00,,,0.00,967.000000,,2013-09-06 20:02:00,
2013-09-06 15:42:00,93.0,61.0,-100.00,SE,135,8.0,16.0,35,0.00,,,0.00,886.000000,,2013-09-06 20:42:00,
2013-09-06 15:52:00,93.0,61.0,-100.00,SE,135,8.0,16.0,35,0.00,,,0.00,886.000000,,2013-09-06 20:52:00,
2013-09-06 16:01:00,93.0,61.0,-100.00,SE,135,8.0,16.0,35,0.00,,,0.00,886.000000,,2013-09-06 21:01:00,
2013-09-06 16:43:00,94.0,61.0,-100.00,ESE,112,7.0,14.0,34,0.00,,,-99.99,785.000000,,2013-09-06 21:43:00,
2013-09-06 16:54:00,94.0,61.0,-100.00,ESE,112,7.0,14.0,34,0.00,,,-99.99,785.000000,,2013-09-06 21:54:00,
2013-09-06 17:04:00,94.0,61.0,-100.00,ESE,112,7.0,14.0,34,0.00,,,-99.99,785.000000,,2013-09-06 22:04:00,
2013-09-06 17:44:00,95.0,61.0,-100.00,SE,140,6.0,11.0,33,0.00,,,0.00,553.000000,,2013-09-06 22:44:00,
2013-09-06 17:54:00,95.0,61.0,-100.00,SE,140,6.0,11.0,33,0.00,,,0.00,553.000000,,2013-09-06 22:54:00,
2013-09-06 18:03:00,95.0,61.0,-100.00,SE,140,6.0,11.0,33,0.00,,,0.00,553.000000,,2013-09-06 23:03:00,
2013-09-06 18:43:00,94.0,59.0,-100.00,SE,136,7.0,14.0,31,0.00,,,-99.99,448.000000,,2013-09-06 23:43:00,
2013-09-06 18:52:00,94.0,59.0,-100.00,SE,136,7.0,14.0,31,0.00,,,-99.99,448.000000,,2013-09-06 23:52:00,
2013-09-06 19:01:00,94.0,59.0,-100.00,SE,136,7.0,14.0,31,0.00,,,-99.99,448.000000,,2013-09-07 00:01:00,
2013-09-06 19:42:00,93.0,59.0,-100.00,SE,134,6.0,11.0,32,0.00,,,0.00,193.000000,,2013-09-07 00:42:00,
2013-09-06 19:52:00,93.0,59.0,-100.00,SE,134,6.0,11.0,32,0.00,,,0.00,193.000000,,2013-09-07 00:52:00,
2013-09-06 20:02:00,93.0,59.0,-100.00,SE,134,6.0,11.0,32,0.00,,,0.00,193.000000,,2013-09-07 01:02:00,
2013-09-06 20:42:00,88.0,59.0,-100.00,ESE,117,3.0,6.0,38,0.00,,,0.00,25.000000,,2013-09-07 01:42:00,
2013-09-06 20:53:00,88.0,59.0,-100.00,ESE,117,3.0,6.0,38,0.00,,,0.00,25.000000,,2013-09-07 01:53:00,
2013-09-06 21:02:00,88.0,59.0,-100.00,ESE,117,3.0,6.0,38,0.00,,,0.00,25.000000,,2013-09-07 02:02:00,
2013-09-06 21:43:00,84.0,59.0,-100.00,ESE,121,6.0,7.0,43,0.00,,,0.00,0.000000,,2013-09-07 02:43:00,
2013-09-06 21:52:00,84.0,59.0,-100.00,ESE,121,6.0,7.0,43,0.00,,,0.00,0.000000,,2013-09-07 02:52:00,
2013-09-06 22:02:00,84.0,59.0,-100.00,ESE,121,6.0,7.0,43,0.00,,,0.00,0.000000,,2013-09-07 03:02:00,
2013-09-06 22:45:00,81.0,61.0,-100.00,ESE,123,5.0,7.0,50,0.00,,,0.00,0.000000,,2013-09-07 03:45:00,
2013-09-06 22:55:00,81.0,61.0,-100.00,ESE,123,5.0,7.0,50,0.00,,,0.00,0.000000,,2013-09-07 03:55:00,
2013-09-06 23:04:00,81.0,61.0,-100.00,ESE,123,5.0,7.0,50,0.00,,,0.00,0.000000,,2013-09-07 04:04:00,
2013-09-06 23:43:00,79.0,62.0,-100.00,SE,129,4.0,6.0,57,0.00,,,0.00,0.000000,,2013-09-07 04:43:00,
2013-09-06 23:54:00,79.0,62.0,-100.00,SE,129,4.0,6.0,57,0.00,,,0.00,0.000000,,2013-09-07 04:54:00,